Eureka, NV

7:44 AM PST on February 23, 2017 (GMT -0800)
Eureka

Weather History for KP68 - March, 2013

Change the Weather History Date:

Friday, March 29, 2013

  Actual Average Record
Temperature  
Mean Temperature 48 °F 40 °F  
Max Temperature 66 °F 54 °F 73 °F (2015)
Min Temperature 30 °F 25 °F 8 °F (1997)
Degree Days  
Heating Degree Days 17 26  
Month to date heating degree days 687 823  
Since 1 July heating degree days 5775 6108  
Cooling Degree Days 0 0  
Month to date cooling degree days 0 0  
Year to date cooling degree days 0 0  
Moisture  
Dew Point 28 °F    
Average Humidity 50    
Maximum Humidity 78    
Minimum Humidity 21    
Precipitation  
Precipitation 0.00 in 0.03 in 0.36 in (1982)
Month to date precipitation 0.08 0.86  
Year to date precipitation 1.99 2.46  
Sea Level Pressure  
Sea Level Pressure 30.09 in    
Wind  
Wind Speed 4 mph (South)    
Max Wind Speed 20 mph    
Max Gust Speed 23 mph    
T = Trace of Precipitation, MM = Missing Value Source: NWS Daily Summary

Daily Weather History Graph

Daily Weather History Graph

Search for Another Location

Airport or City:

Trip Planner

Search our weather history database for the weather conditions in past years. The results will help you decide how hot, cold, wet, or windy it might be!

Date:

Astronomy

Mar. 29, 2013 Rise Set
Actual Time 6:32 AM PDT 7:05 PM PDT
Civil Twilight 6:05 AM PDT 7:32 PM PDT
Nautical Twilight 5:33 AM PDT 8:04 PM PDT
Astronomical Twilight 5:00 AM PDT 8:36 PM PDT
Moon 10:09 PM PDT (3/29) 7:45 AM PDT (3/29)
Length of Visible Light 13h 26m
Length of Day
12h 32m
Waning Gibbous, 93% of the Moon is Illuminated
Mar 29
Waning Gibbous
Apr 2
Last Quarter
Apr 10
New
Apr 18
First Quarter
Apr 25
Full

Hourly Weather History & Observations

Time (PDT) Temp. Windchill Dew Point Humidity Pressure Visibility Wind Dir Wind Speed Gust Speed Precip Events Conditions
12:53 AM 34.0 °F 27.2 °F 27.0 °F 75% 30.05 in - SSW 8.1 mph - N/A   Unknown
1:53 AM 33.1 °F 30.0 °F 27.0 °F 78% 30.06 in - South 3.5 mph - N/A   Unknown
2:53 AM 36.0 °F 30.3 °F 28.0 °F 73% 30.05 in - South 6.9 mph - N/A   Unknown
3:53 AM 37.0 °F - 28.9 °F 73% 30.06 in - Calm Calm - N/A   Unknown
4:53 AM 35.1 °F - 28.0 °F 76% 30.09 in - Calm Calm - N/A   Unknown
5:53 AM 33.1 °F 30.0 °F 27.0 °F 78% 30.12 in - SW 3.5 mph - N/A   Unknown
6:53 AM 30.0 °F 25.2 °F 25.0 °F 82% 30.16 in - South 4.6 mph - N/A   Unknown
7:53 AM 39.9 °F - 30.0 °F 68% 30.16 in - Calm Calm - N/A   Unknown
8:53 AM 48.9 °F - 28.9 °F 46% 30.13 in - Calm Calm - N/A   Unknown
9:53 AM 53.1 °F - 28.9 °F 40% 30.13 in - Variable 4.6 mph - N/A   Unknown
10:53 AM 55.9 °F - 30.0 °F 37% 30.13 in - Calm Calm - N/A   Unknown
11:53 AM 57.9 °F - 28.9 °F 33% 30.12 in - Variable 4.6 mph - N/A   Unknown
12:53 PM 61.0 °F - 28.0 °F 29% 30.09 in - Variable 4.6 mph - N/A   Unknown
1:53 PM 63.0 °F - 27.0 °F 26% 30.07 in - SSW 9.2 mph - N/A   Unknown
2:53 PM 63.0 °F - 25.0 °F 24% 30.04 in - Calm Calm - N/A   Unknown
3:53 PM 63.0 °F - 23.0 °F 22% 30.04 in - Variable 3.5 mph - N/A   Unknown
4:53 PM 61.0 °F - 27.0 °F 27% 30.06 in - SSW 6.9 mph - N/A   Unknown
5:53 PM 60.1 °F - 27.0 °F 28% 30.07 in - NNW 6.9 mph - N/A   Unknown
6:53 PM 54.0 °F - 28.9 °F 38% 30.10 in - NNW 4.6 mph - N/A   Unknown
7:53 PM 50.0 °F - 28.0 °F 43% 30.09 in - SE 6.9 mph - N/A   Unknown
8:53 PM 45.0 °F 41.2 °F 30.0 °F 56% 30.10 in - SSW 6.9 mph - N/A   Unknown
9:53 PM 41.0 °F 37.1 °F 28.9 °F 62% 30.12 in - SE 5.8 mph - N/A   Unknown
10:53 PM 45.0 °F 41.8 °F 30.0 °F 56% 30.09 in - South 5.8 mph - N/A   Unknown
11:53 PM 43.0 °F 41.3 °F 30.0 °F 60% 30.08 in - South 3.5 mph - N/A   Unknown